[[{"header":{"parameterUnit":"m.s-1","parameterCategory":1,"la1":30.2991,"la2":30.254,"lo1":-89.0895,"lo2":-89.0444,"dy":0.0017,"dx":0.0017,"nx":28,"ny":28,"refTime":"2024-06-15T21:00:00:Z","depth":0,"parameterNumber":2,"parameterNumberName":"U-component_of_WINDS"},"data":[0,0,0,0,0,0,0,0,0,0,0,0,0,0,0,0,0,0,0,0,0,0,0,0,0,0,0,0,0,0,0,0,0,0,0,0,0,0,0,0,0,0,0,0,0,0,0,0,0,0,0,0,0,0,0,0,0,0,-6.6897,-6.6898,0,-6.6983,-6.6984,-6.6984,-6.6932,-6.6929,-6.6927,-6.6925,-6.7009,-6.7013,-6.7018,0,0,0,0,0,0,0,0,0,0,0,0,0,-6.6688,-6.6692,-6.6897,-6.6898,-6.69,-6.6982,-6.6984,-6.6985,-6.6932,-6.6929,-6.6926,-6.6923,-6.7007,-6.7013,-6.7018,0,0,0,0,0,0,0,0,0,0,0,0,0,-6.6777,-6.6694,-6.6897,-6.6883,-6.6883,-6.6982,-6.6984,-6.6985,-6.6933,-6.6929,-6.6925,-6.6922,-6.7005,-6.7012,-6.7019,-6.7135,0,0,-6.704,-6.7043,0,0,0,0,0,0,0,0,-6.6772,-6.6784,-6.6884,-6.6885,-6.6884,-6.6943,-6.6941,-6.7035,-6.6934,-6.6914,-6.6924,-6.692,-6.699,-6.6997,-6.7021,-6.7139,-6.7143,-6.704,-6.7044,-6.7047,-6.7049,0,0,0,0,0,0,0,-6.6766,-6.678,-6.6931,-6.6886,-6.6886,-6.6873,-6.6881,-6.6958,-6.6971,-6.6915,-6.6912,-6.6923,-6.6989,-6.7015,-6.7023,-6.7144,-6.704,-6.7046,-6.705,-6.7053,-6.7362,-6.7366,0,0,0,0,0,0,-6.6761,-6.6776,-6.6928,-6.6933,-6.6818,-6.6879,-6.6889,-6.6928,-6.697,-6.6973,-6.6926,-6.692,-6.7005,-6.7015,-6.7026,-6.7164,-6.7047,-6.7054,-6.7058,-6.7358,-6.7363,-6.7367,0,0,0,0,0,0,-6.6757,-6.6775,-6.6925,-6.6854,-6.6872,-6.6887,-6.6931,-6.6931,-6.6957,-6.6978,-6.698,-6.695,-6.7003,-6.7016,-6.7109,-6.7166,-6.7057,-6.7063,-6.7353,-6.736,-6.7365,-6.7442,0,0,0,0,0,0,-6.6751,-6.6774,-6.6818,-6.6855,-6.6876,-6.7007,-6.6935,-6.6936,-6.697,-6.6963,-6.7002,-6.7005,-6.7001,-6.7099,-6.7115,-6.7173,-6.7068,-6.7348,-6.7356,-6.7363,-6.7434,-6.745,-6.7463,0,0,0,0,0,-6.6744,-6.6836,-6.6821,-6.6839,-6.6932,-6.701,-6.7022,-6.7016,-6.6975,-6.7019,-6.7033,-6.7003,-6.7159,-6.7109,-6.7127,-6.7188,-6.7344,-6.7354,-6.7363,-6.7427,-6.7447,-6.7463,0,0,0,0,0,0,-6.6803,-6.684,-6.6824,-6.6931,-6.6968,-6.7001,-6.7056,-6.7037,-6.7085,-6.7077,-6.7068,-6.7077,-6.7173,-6.7191,-6.7135,-6.7303,-6.7245,-6.7258,-6.7288,-6.7306,-6.732,-6.7312,-6.7074,0,0,0,0,0,-6.6829,-6.689,-6.6919,-6.7011,-6.703,-6.7041,-6.7075,-6.7068,-6.7105,-6.712,-6.7141,-6.7178,-6.7235,-6.7272,-6.7326,-6.7438,-6.7445,-6.7489,-6.7504,-6.7516,-6.7526,-6.7586,-6.7606,-6.7398,-6.7398,-6.7398,0,0,-6.6882,-6.691,-6.6949,-6.7023,-6.7051,-6.7114,-6.7054,-6.7123,-6.7169,-6.713,-6.7218,-6.7236,-6.7276,-6.7379,-6.7426,-6.7396,-6.7586,-6.7528,-6.7537,-6.7541,-6.7598,-6.7617,-6.7635,-6.7404,-6.7403,-6.7402,0,0,-6.701,-6.7039,-6.7117,-6.7148,-6.7191,-6.7198,-6.7218,-6.7255,-6.7265,-6.7354,-6.7327,-6.7382,-6.7481,-6.7511,-6.7539,-6.7683,-6.7657,-6.7701,-6.7775,-6.7834,-6.7851,-6.7865,-6.7914,-6.7932,-6.7712,-6.7713,-6.7713,0,-6.7069,-6.7164,-6.716,-6.7232,-6.7265,-6.7236,-6.7315,-6.7345,-6.7403,-6.7427,-6.7395,-6.7519,-6.7544,-6.7653,-6.7689,-6.7714,-6.7734,-6.7694,-6.7849,-6.7863,-6.7877,-6.7923,-6.7942,-6.7717,-6.7717,-6.7716,-6.7716,0,-6.7234,-6.73,-6.7359,-6.7418,-6.7458,-6.7534,-6.7541,-6.7583,-6.7574,-6.7585,-6.7676,-6.7707,-6.7766,-6.7793,-6.7784,-6.7901,-6.7882,-6.785,-6.7789,-6.7901,-6.7945,-6.7963,-6.7724,-6.7723,-6.7721,-6.772,0,0,-6.7396,-6.7456,-6.7477,-6.7503,-6.7552,-6.7602,-6.7677,-6.7737,-6.7772,-6.7815,-6.7876,-6.7963,-6.7934,-6.7966,-6.7962,-6.8014,-6.8124,-6.7975,-6.7976,-6.7999,-6.8253,-6.8274,-6.8295,-6.811,-6.8113,-6.8116,-6.8249,0,-6.7525,-6.7655,-6.7656,-6.7776,-6.7836,-6.7812,-6.7877,-6.7914,-6.7927,-6.798,-6.7995,-6.8055,-6.8014,-6.8033,-6.8084,-6.81,-6.8174,-6.8091,-6.8164,-6.8167,-6.815,-6.8318,-6.834,-6.8464,-6.8266,-6.8269,-6.8272,0,-6.7691,-6.7741,-6.7867,-6.7908,-6.7933,-6.7992,-6.8047,-6.8099,-6.8141,-6.8147,-6.8185,-6.8173,-6.8249,-6.8191,-6.8295,-6.8238,-6.8269,-6.8282,-6.8287,-6.8289,-6.8223,-6.8323,-6.8504,-6.8521,-6.8299,-6.8297,-6.8295,0,-6.7793,-6.7893,-6.7981,-6.8005,-6.8055,-6.8097,-6.812,-6.8158,-6.8194,-6.8244,-6.8267,-6.8324,-6.8354,-6.8399,-6.8403,-6.836,-6.8507,-6.8449,-6.8512,-6.8512,-6.854,-6.8537,-6.8725,-6.8567,-6.8567,-6.8566,-6.8566,0,-6.7934,-6.8012,-6.8027,-6.8081,-6.8168,-6.8169,-6.8255,-6.8274,-6.8309,-6.8366,-6.835,-6.8403,-6.8407,-6.8463,-6.8467,-6.8551,-6.8566,-6.8572,-6.8571,-6.8571,-6.857,-6.8588,-6.8578,-6.8571,-6.857,-6.8569,-6.8569,0,-6.806,-6.8075,-6.8169,-6.8211,-6.8223,-6.8285,-6.832,-6.8371,-6.8385,-6.8457,-6.8474,-6.8495,-6.8559,-6.8569,-6.8645,-6.8648,-6.8748,-6.8741,-6.8734,-6.8731,-6.8793,-6.8786,-6.8995,-6.9022,-6.885,-6.8852,-6.8853,0,-6.8147,-6.8206,-6.8255,-6.8293,-6.8319,-6.8379,-6.8417,-6.8422,-6.8462,-6.8516,-6.8561,-6.8624,-6.8674,-6.8779,-6.88,-6.8858,-6.8849,-6.8919,-6.8858,-6.8856,-6.8847,-6.8842,-6.8847,-6.8929,-6.8931,-6.8933,-6.8934,0,-6.8299,-6.8304,-6.8359,-6.8418,-6.8464,-6.851,-6.8553,-6.8585,-6.8596,-6.8642,-6.8708,-6.8748,-6.8827,-6.8889,-6.8947,-6.897,-6.8954,-6.8954,-6.8971,-6.8969,-6.8962,-6.8964,-6.8762,-6.8948,-6.8947,-6.8946,-6.8945,-6.8944,-6.8406,-6.8457,-6.85,-6.8563,-6.8597,-6.8639,-6.8689,-6.871,-6.8766,-6.8831,-6.8831,-6.8904,-6.8946,-6.9023,-6.9051,-6.9107,-6.9085,-6.911,-6.9116,-6.9121,-6.9125,-6.8957,-6.9119,-6.9118,-6.9118,-6.9118,-6.9117,0,-6.8554,-6.8581,-6.8639,-6.8702,-6.8751,-6.8735,-6.8783,-6.8825,-6.8889,-6.8931,-6.8982,-6.9059,-6.9121,-6.9149,-6.921,-6.925,-6.9244,-6.9265,-6.926,-6.9265,-6.9144,-6.9121,-6.9269,-6.9269,-6.9269,-6.9269,-6.9269,-6.9269,-6.8636,-6.8722,-6.8733,-6.8836,-6.8863,-6.8935,-6.8964,-6.9002,-6.9036,-6.9123,-6.9174,-6.9193,-6.9229,-6.9293,-6.9349,-6.9356,-6.9377,-6.9402,-6.9405,-6.9289,-6.9274,-6.9259,-6.9238,-6.9407,-6.9408,-6.9521,-6.9522,-6.9523]},{"header":{"parameterUnit":"m.s-1","parameterCategory":1,"la1":30.2991,"la2":30.254,"lo1":-89.0895,"lo2":-89.0444,"dy":0.0017,"dx":0.0017,"nx":28,"ny":28,"refTime":"2024-06-15T21:00:00:Z","depth":0,"parameterNumber":3,"parameterNumberName":"V-component_of_WINDS"},"data":[0,0,0,0,0,0,0,0,0,0,0,0,0,0,0,0,0,0,0,0,0,0,0,0,0,0,0,0,0,0,0,0,0,0,0,0,0,0,0,0,0,0,0,0,0,0,0,0,0,0,0,0,0,0,0,0,0,0,2.613,2.613,0,2.6169,2.6169,2.6169,2.6231,2.6232,2.6233,2.6235,2.6269,2.6269,2.6269,0,0,0,0,0,0,0,0,0,0,0,0,0,2.6105,2.6106,2.613,2.613,2.6131,2.6169,2.6169,2.617,2.6231,2.6232,2.6234,2.6235,2.6269,2.6269,2.6269,0,0,0,0,0,0,0,0,0,0,0,0,0,2.6127,2.6106,2.613,2.6166,2.617,2.6168,2.6169,2.617,2.6231,2.6232,2.6234,2.6236,2.6269,2.6269,2.6269,2.6233,0,0,2.6268,2.6268,0,0,0,0,0,0,0,0,2.6126,2.6128,2.616,2.6164,2.6168,2.6197,2.6173,2.6191,2.623,2.6207,2.6235,2.6237,2.6243,2.6245,2.6249,2.6235,2.6236,2.6268,2.6268,2.6268,2.6268,0,0,0,0,0,0,0,2.6124,2.6127,2.6145,2.6161,2.6165,2.6179,2.6184,2.6177,2.6215,2.6209,2.6214,2.6218,2.6246,2.6249,2.625,2.6237,2.6268,2.6268,2.6268,2.6268,2.6197,2.6196,0,0,0,0,0,0,2.6118,2.6125,2.6144,2.6146,2.6151,2.6178,2.6184,2.6186,2.6215,2.6222,2.6217,2.6221,2.6248,2.625,2.6251,2.6212,2.6268,2.6268,2.6267,2.6199,2.6197,2.6195,0,0,0,0,0,0,2.6117,2.6119,2.6142,2.6137,2.6141,2.6177,2.6178,2.6186,2.6189,2.6221,2.6228,2.6213,2.625,2.6252,2.6238,2.6214,2.6267,2.6267,2.6201,2.6198,2.6196,2.6134,0,0,0,0,0,0,2.6116,2.6118,2.6106,2.6136,2.6141,2.6129,2.6177,2.6185,2.6189,2.6195,2.6219,2.6225,2.6251,2.6238,2.6238,2.6215,2.6267,2.6203,2.62,2.6197,2.6138,2.6129,2.6122,0,0,0,0,0,2.6115,2.6085,2.6105,2.6107,2.6126,2.6127,2.613,2.6162,2.6187,2.6174,2.6195,2.6224,2.6217,2.6236,2.6236,2.6213,2.6205,2.6201,2.6197,2.6142,2.6131,2.6122,0,0,0,0,0,0,2.6049,2.609,2.6112,2.6092,2.6106,2.6138,2.6123,2.615,2.6156,2.6161,2.62,2.6205,2.6186,2.6198,2.6218,2.6181,2.6216,2.6212,2.6173,2.6164,2.6156,2.6152,2.6267,0,0,0,0,0,2.6033,2.6031,2.6067,2.6045,2.6052,2.6086,2.6087,2.6112,2.6127,2.6133,2.6153,2.6165,2.6167,2.6166,2.6168,2.6141,2.6147,2.6125,2.6117,2.611,2.6106,2.6093,2.6083,2.6182,2.6182,2.6182,0,0,2.5997,2.602,2.6016,2.6033,2.6046,2.6043,2.609,2.6085,2.6082,2.6131,2.612,2.6135,2.6152,2.6132,2.6123,2.6141,2.608,2.6105,2.61,2.6099,2.6088,2.6078,2.607,2.6179,2.618,2.618,0,0,2.5932,2.5949,2.5934,2.5947,2.5969,2.5992,2.5988,2.6017,2.6029,2.602,2.6057,2.6054,2.6055,2.6066,2.6071,2.6012,2.6039,2.6012,2.5969,2.5956,2.5948,2.5941,2.592,2.5912,2.6008,2.6008,2.6007,0,2.5885,2.5883,2.5921,2.5914,2.592,2.5967,2.5951,2.5962,2.5982,2.5985,2.6006,2.6009,2.6023,2.6006,2.5992,2.5995,2.5991,2.6008,2.5946,2.594,2.5934,2.5914,2.5906,2.6004,2.6004,2.6005,2.6005,0,2.5825,2.5823,2.5808,2.5829,2.5833,2.5821,2.5857,2.5857,2.5881,2.5902,2.5891,2.5911,2.5919,2.5917,2.5939,2.5903,2.5914,2.594,2.5975,2.5921,2.5902,2.5895,2.5999,2.6,2.6001,2.6002,0,0,2.5717,2.5761,2.5754,2.5765,2.5793,2.5792,2.5782,2.5792,2.5791,2.5804,2.5797,2.5797,2.5823,2.5829,2.5853,2.5842,2.5794,2.5869,2.587,2.5854,2.5755,2.5734,2.5725,2.5813,2.5811,2.581,2.5753,0,2.5656,2.5644,2.5679,2.5657,2.5656,2.5702,2.5694,2.571,2.5729,2.5731,2.5752,2.5752,2.5785,2.5789,2.578,2.5802,2.5774,2.5806,2.5805,2.5804,2.5798,2.5716,2.5693,2.5638,2.5746,2.5745,2.5744,0,2.5584,2.5595,2.5574,2.5605,2.5606,2.5598,2.561,2.5611,2.563,2.5646,2.5654,2.5683,2.5676,2.5711,2.57,2.5721,2.5723,2.5733,2.5732,2.5732,2.577,2.5712,2.5622,2.5613,2.5734,2.5735,2.5735,0,2.5507,2.5517,2.5506,2.5514,2.5549,2.5543,2.5557,2.5578,2.5582,2.5593,2.5596,2.5604,2.5609,2.5614,2.5645,2.5668,2.5631,2.5668,2.5642,2.5641,2.5631,2.5631,2.5538,2.5633,2.5634,2.5634,2.5634,0,2.5435,2.542,2.5472,2.5465,2.545,2.549,2.5473,2.5492,2.5511,2.5507,2.5547,2.5543,2.5585,2.5585,2.5609,2.5597,2.5598,2.561,2.5616,2.5605,2.5604,2.5606,2.561,2.5632,2.5632,2.5632,2.5633,0,2.5345,2.538,2.5371,2.5406,2.5415,2.5402,2.5432,2.5426,2.545,2.5445,2.5447,2.5483,2.5485,2.5518,2.5526,2.5543,2.552,2.5534,2.5514,2.5518,2.549,2.5491,2.5394,2.5383,2.5486,2.5485,2.5484,0,2.5297,2.5287,2.5322,2.5324,2.5337,2.5339,2.5344,2.5384,2.5387,2.5409,2.5401,2.5407,2.5414,2.5416,2.5442,2.5449,2.5463,2.5429,2.5464,2.5454,2.5461,2.5461,2.546,2.542,2.5419,2.5418,2.5417,0,2.5207,2.5225,2.5232,2.5245,2.525,2.5262,2.5276,2.5274,2.5318,2.532,2.5324,2.533,2.534,2.5346,2.5358,2.5372,2.5401,2.5406,2.54,2.5388,2.5377,2.5382,2.5492,2.5407,2.5408,2.5409,2.541,2.541,2.5136,2.513,2.5154,2.516,2.5176,2.5188,2.5185,2.5209,2.5214,2.5227,2.525,2.5251,2.5271,2.5291,2.5302,2.5303,2.532,2.5312,2.5309,2.5306,2.5301,2.5378,2.5305,2.5305,2.5306,2.5306,2.5306,0,2.5048,2.5066,2.5072,2.5091,2.5096,2.5127,2.5144,2.5146,2.5146,2.5164,2.5171,2.5176,2.5182,2.5209,2.5218,2.5213,2.5227,2.5214,2.5214,2.5216,2.5285,2.5289,2.5203,2.5203,2.5203,2.5203,2.5203,2.5203,2.5002,2.4993,2.5014,2.5013,2.5032,2.5034,2.5042,2.5053,2.5067,2.5072,2.5078,2.5097,2.5118,2.5129,2.5136,2.5144,2.5144,2.5127,2.5139,2.5202,2.5211,2.5221,2.5225,2.5127,2.5127,2.5071,2.507,2.507]}]]